Notices

What's New in latest Release from April 7th, 2021:

- Updated Glossary, including Speed of Maximum Gust, and Total Hourly Precipitation

- Updated national and regional climate services offices contacts and prices information

- Addition of station inventory lists for 1981-2010, 1971-2000, and 1961-1990 Normals.

If you haven't already, please take our survey and provide feedback about our website: https://eccc.sondage-survey.ca/f/LanguageSelection.aspx?s=442ca660-fcf1-47c0-95a9-59707d6fd709

Hourly Data Report for October 10, 2004

SHERBROOKE A
QUEBEC

45°26'00.000" N
71°41'00.000" W
241.40 m
7028124
71610
YSC

Download Data

Hourly Data (October 2004)
Hourly Data Report for October 10, 2004
TIME
LST
Temp Definition
°C
Dew Point Definition
°C
Rel Hum Definition
%
Precip. Amount Definition
mm

Wind Dir Definition
10's deg

Wind Spd Definition
km/h
Visibility Definition
km
Stn Press Definition
kPa
Hmdx Definition


Wind Chill Definition


Weather Definition


00:00 12.9 6.0 63   25 7 15.0 98.52      
01:00 12.5 5.4 62   24 11 15.0 98.56      
02:00 11.3 5.6 68   26 9 15.0 98.53      
03:00 10.7 5.4 70   18 9 15.0 98.52      
04:00 10.5 5.2 70   22 7 15.0 98.50      
05:00 10.0 5.6 74   23 7 15.0 98.53      
06:00 10.5 5.8 73   25 9 15.0 98.58      
07:00 10.6 5.7 72   27 15 24.1 98.65     Mostly Cloudy
08:00 10.7 6.0 73   26 15 24.1 98.69     Mostly Cloudy
09:00 10.8 5.8 71   29 15 24.1 98.73     Mostly Cloudy
10:00 11.4 5.1 65   27 15 24.1 98.73     Mostly Cloudy
11:00 10.7 5.1 68   29 15 24.1 98.73     Cloudy
12:00 11.3 5.7 68   27 15 24.1 98.70     Cloudy
13:00 11.1 5.0 66   30 11 24.1 98.70     Cloudy
14:00 10.9 5.4 69   27 11 24.1 98.71     Cloudy
15:00 10.4 5.6 72   29 7 24.1 98.72     Cloudy
16:00 10.0 4.9 71   31 9 24.1 98.76     Cloudy
17:00 9.7 4.9 72   30 9 15.0 98.78      
18:00 9.3 4.9 74   32 11 15.0 98.81      
19:00 8.6 5.9 83   31 9 15.0 98.82      
20:00 8.5 6.2 85   29 11 15.0 98.85      
21:00 8.9 5.1 77   33 9 15.0 98.90      
22:00 8.5 4.9 78   33 11 15.0 98.88      
23:00 8.3 4.6 77   31 9 15.0 98.87      

Notes on Data Quality.

Legend

  • E = Estimated
  • M = Missing
  • NA = Not Available*
  • [empty] = Indicates an unobserved value
Date modified: